Creston, IA

11:51 PM CDT on May 29, 2017 (GMT -0500)
Creston Municipal

Weather History for KCSQ - July, 2014

Change the Weather History Date:

Tuesday, July 1, 2014

  Actual Average Record
Temperature  
Mean Temperature 70 °F -  
Max Temperature 78 °F 84 °F 98 °F (1963)
Min Temperature 60 °F 62 °F 50 °F (1959)
Cooling Degree Days 5    
Growing Degree Days 20 (Base 50)    
Moisture  
Dew Point 59 °F    
Average Humidity 73    
Maximum Humidity 100    
Minimum Humidity 53    
Precipitation  
Precipitation 0.00 in - - ()
Sea Level Pressure  
Sea Level Pressure 29.87 in    
Wind  
Wind Speed 12 mph (West)    
Max Wind Speed 25 mph    
Max Gust Speed 32 mph    
Visibility 10 miles    
Events      
Averages and records for this station are not official NWS values.
T = Trace of Precipitation, MM = Missing Value Source: NWS Daily Summary

Daily Weather History Graph

Daily Weather History Graph

Search for Another Location

Airport or City:

Trip Planner

Search our weather history database for the weather conditions in past years. The results will help you decide how hot, cold, wet, or windy it might be!

Date:

Astronomy

Jul. 01, 2014 Rise Set
Actual Time 5:49 AM CDT 8:53 PM CDT
Civil Twilight 5:15 AM CDT 9:26 PM CDT
Nautical Twilight 4:32 AM CDT 10:09 PM CDT
Astronomical Twilight 3:42 AM CDT 10:59 PM CDT
Moon 9:59 AM CDT (7/1) 11:15 PM CDT (7/1)
Length of Visible Light 16h 11m
Length of Day
15h 04m
Waxing Crescent, 17% of the Moon is Illuminated
Jul 1
Waxing Crescent
Jul 5
First Quarter
Jul 12
Full
Jul 18
Last Quarter
Jul 26
New

Hourly Weather History & Observations

Time (CDT) Temp. Dew Point Humidity Pressure Visibility Wind Dir Wind Speed Gust Speed Precip Events Conditions
12:35 AM 62.6 °F 62.6 °F 100% 29.81 in 8.0 mi SW 8.1 mph - N/A   Clear
12:55 AM 62.6 °F 62.6 °F 100% 29.83 in 10.0 mi SW 8.1 mph - N/A   Clear
1:15 AM 62.6 °F 62.6 °F 100% 29.83 in 10.0 mi WSW 5.8 mph - N/A   Clear
1:35 AM 62.6 °F 62.6 °F 100% 29.84 in 10.0 mi SW 6.9 mph - N/A   Clear
1:55 AM 62.6 °F 62.6 °F 100% 29.85 in 10.0 mi WSW 6.9 mph - N/A   Clear
2:15 AM 62.6 °F 62.6 °F 100% 29.84 in 10.0 mi West 8.1 mph - N/A   Clear
2:35 AM 64.4 °F 62.6 °F 94% 29.83 in 10.0 mi West 11.5 mph - N/A   Clear
2:55 AM 64.4 °F 62.6 °F 94% 29.82 in 10.0 mi WNW 11.5 mph - N/A   Clear
3:15 AM 64.4 °F 62.6 °F 94% 29.81 in 10.0 mi WNW 11.5 mph - N/A   Clear
3:35 AM 64.4 °F 60.8 °F 88% 29.81 in 10.0 mi WNW 12.7 mph - N/A   Clear
4:15 AM 62.6 °F 60.8 °F 94% 29.82 in 10.0 mi West 10.4 mph - N/A   Clear
4:35 AM 62.6 °F 60.8 °F 94% 29.83 in 10.0 mi West 9.2 mph - N/A   Clear
4:55 AM 62.6 °F 60.8 °F 94% 29.85 in 10.0 mi West 9.2 mph - N/A   Clear
5:15 AM 62.6 °F 60.8 °F 94% 29.86 in 10.0 mi WSW 8.1 mph - N/A   Clear
5:35 AM 62.6 °F 59.0 °F 88% 29.86 in 10.0 mi WSW 8.1 mph - N/A   Clear
5:55 AM 62.6 °F 59.0 °F 88% 29.86 in 10.0 mi WSW 8.1 mph - N/A   Clear
6:35 AM 62.6 °F 59.0 °F 88% 29.85 in 10.0 mi West 10.4 mph - N/A   Clear
7:15 AM 64.4 °F 59.0 °F 83% 29.85 in 10.0 mi West 11.5 mph - N/A   Clear
7:35 AM 64.4 °F 59.0 °F 83% 29.84 in 10.0 mi WNW 17.3 mph - N/A   Clear
8:15 AM 66.2 °F 59.0 °F 78% 29.86 in 10.0 mi West 13.8 mph - N/A   Clear
8:35 AM 68.0 °F 59.0 °F 73% 29.86 in 10.0 mi West 12.7 mph 21.9 mph N/A   Clear
8:55 AM 68.0 °F 59.0 °F 73% 29.87 in 10.0 mi West 10.4 mph 18.4 mph N/A   Clear
9:15 AM 69.8 °F 60.8 °F 73% 29.86 in 10.0 mi WSW 9.2 mph 16.1 mph N/A   Clear
9:35 AM 71.6 °F 59.0 °F 64% 29.86 in 10.0 mi WSW 13.8 mph - N/A   Clear
9:55 AM 71.6 °F 59.0 °F 64% 29.87 in 10.0 mi West 17.3 mph 26.5 mph N/A   Clear
10:15 AM 69.8 °F 59.0 °F 68% 29.86 in 10.0 mi West 12.7 mph - N/A   Clear
10:35 AM 71.6 °F 59.0 °F 64% 29.86 in 10.0 mi West 15.0 mph - N/A   Clear
11:15 AM 73.4 °F 60.8 °F 65% 29.86 in 10.0 mi West 16.1 mph 24.2 mph N/A   Clear
11:35 AM 73.4 °F 59.0 °F 61% 29.85 in 10.0 mi West 19.6 mph 27.6 mph N/A   Clear
11:55 AM 73.4 °F 60.8 °F 65% 29.86 in 10.0 mi West 19.6 mph - N/A   Partly Cloudy
12:15 PM 75.2 °F 60.8 °F 61% 29.86 in 10.0 mi West 17.3 mph 24.2 mph N/A   Partly Cloudy
12:35 PM 75.2 °F 60.8 °F 61% 29.86 in 10.0 mi West 20.7 mph 27.6 mph N/A   Partly Cloudy
12:55 PM 75.2 °F 59.0 °F 57% 29.87 in 10.0 mi WNW 18.4 mph 24.2 mph N/A   Partly Cloudy
1:15 PM 77.0 °F 60.8 °F 57% 29.87 in 10.0 mi West 20.7 mph - N/A   Scattered Clouds
1:35 PM 75.2 °F 60.8 °F 61% 29.87 in 10.0 mi West 19.6 mph 25.3 mph N/A   Mostly Cloudy
1:55 PM 77.0 °F 60.8 °F 57% 29.87 in 10.0 mi West 13.8 mph 21.9 mph N/A   Mostly Cloudy
2:15 PM 77.0 °F 60.8 °F 57% 29.87 in 10.0 mi West 16.1 mph 21.9 mph N/A   Scattered Clouds
2:35 PM 77.0 °F 60.8 °F 57% 29.86 in 10.0 mi WNW 18.4 mph - N/A   Scattered Clouds
2:55 PM 75.2 °F 59.0 °F 57% 29.86 in 10.0 mi West 13.8 mph 21.9 mph N/A   Mostly Cloudy
3:15 PM 75.2 °F 60.8 °F 61% 29.87 in 10.0 mi WNW 15.0 mph - N/A   Overcast
3:35 PM 78.8 °F 62.6 °F 57% 29.87 in 10.0 mi WNW 15.0 mph 24.2 mph N/A   Mostly Cloudy
3:55 PM 77.0 °F 59.0 °F 54% 29.86 in 10.0 mi West 19.6 mph - N/A   Mostly Cloudy
4:15 PM 75.2 °F 59.0 °F 57% 29.87 in 10.0 mi WNW 19.6 mph 26.5 mph N/A   Overcast
4:35 PM 73.4 °F 59.0 °F 61% 29.88 in 10.0 mi WNW 21.9 mph 28.8 mph N/A   Overcast
4:55 PM 73.4 °F 59.0 °F 61% 29.88 in 10.0 mi WNW 24.2 mph 32.2 mph N/A   Overcast
5:15 PM 73.4 °F 59.0 °F 61% 29.88 in 10.0 mi WNW 21.9 mph - N/A   Scattered Clouds
5:35 PM 75.2 °F 57.2 °F 53% 29.88 in 10.0 mi WNW 23.0 mph - N/A   Clear
5:55 PM 73.4 °F 55.4 °F 53% 29.88 in 10.0 mi WNW 25.3 mph 32.2 mph N/A   Clear
6:15 PM 73.4 °F 55.4 °F 53% 29.88 in 10.0 mi NW 21.9 mph 29.9 mph N/A   Partly Cloudy
6:35 PM 71.6 °F 55.4 °F 57% 29.89 in 10.0 mi WNW 19.6 mph 31.1 mph N/A   Clear
7:15 PM 69.8 °F 55.4 °F 60% 29.89 in 10.0 mi NW 15.0 mph 23.0 mph N/A   Clear
7:35 PM 69.8 °F 55.4 °F 60% 29.90 in 10.0 mi NW 18.4 mph 24.2 mph N/A   Mostly Cloudy
7:55 PM 68.0 °F 55.4 °F 64% 29.90 in 10.0 mi NW 12.7 mph 19.6 mph N/A   Overcast
8:15 PM 68.0 °F 57.2 °F 68% 29.91 in 10.0 mi NW 17.3 mph - N/A   Overcast
8:35 PM 66.2 °F 57.2 °F 73% 29.91 in 10.0 mi NNW 16.1 mph - N/A   Overcast
8:55 PM 64.4 °F 55.4 °F 73% 29.91 in 10.0 mi NNW 17.3 mph - N/A   Overcast
9:15 PM 64.4 °F 55.4 °F 73% 29.92 in 10.0 mi NW 13.8 mph - N/A   Overcast
9:35 PM 64.4 °F 57.2 °F 77% 29.93 in 10.0 mi NW 12.7 mph - N/A   Overcast
9:55 PM 64.4 °F 57.2 °F 77% 29.94 in 10.0 mi NW 10.4 mph - N/A   Overcast
10:15 PM 62.6 °F 55.4 °F 77% 29.95 in 10.0 mi WNW 16.1 mph 23.0 mph N/A   Overcast
10:35 PM 62.6 °F 53.6 °F 72% 29.96 in 10.0 mi WNW 16.1 mph 23.0 mph N/A   Overcast
10:55 PM 62.6 °F 53.6 °F 72% 29.97 in 10.0 mi WNW 13.8 mph 23.0 mph N/A   Overcast
11:15 PM 60.8 °F 53.6 °F 77% 29.97 in 10.0 mi WNW 10.4 mph 18.4 mph N/A   Scattered Clouds